TimeMDT,TemperatureF,Dew PointF,Humidity,Sea Level PressureIn,VisibilityMPH,Wind Direction,Wind SpeedMPH,Gust SpeedMPH,PrecipitationIn,Events,Conditions,WindDirDegrees,DateUTC
12:15 AM,62.8,50.0,63,30.09,10.0,NNW,3.5,-,N/A,,Clear,340,2013-08-07 06:15:00
12:35 AM,61.5,50.2,66,30.10,10.0,Calm,Calm,-,N/A,,Clear,0,2013-08-07 06:35:00
12:55 AM,61.0,50.4,68,30.11,10.0,West,3.5,-,N/A,,Clear,280,2013-08-07 06:55:00
1:15 AM,60.8,50.5,69,30.11,10.0,WNW,5.8,-,N/A,,Clear,290,2013-08-07 07:15:00
1:35 AM,61.0,50.0,67,30.11,10.0,NW,4.6,-,N/A,,Clear,310,2013-08-07 07:35:00
1:55 AM,60.1,50.7,71,30.12,10.0,Calm,Calm,-,N/A,,Clear,0,2013-08-07 07:55:00
2:15 AM,60.3,51.1,72,30.12,10.0,Calm,Calm,-,N/A,,Clear,0,2013-08-07 08:15:00
2:35 AM,62.2,51.3,67,30.13,10.0,NW,5.8,-,N/A,,Clear,320,2013-08-07 08:35:00
2:55 AM,61.7,52.0,70,30.13,10.0,Calm,Calm,-,N/A,,Clear,0,2013-08-07 08:55:00
3:15 AM,61.9,51.8,69,30.12,10.0,NW,3.5,-,N/A,,Clear,320,2013-08-07 09:15:00
3:35 AM,61.7,52.7,72,30.11,10.0,Calm,Calm,-,N/A,,Clear,0,2013-08-07 09:35:00
3:55 AM,61.7,52.9,73,30.11,10.0,Calm,Calm,-,N/A,,Clear,0,2013-08-07 09:55:00
4:15 AM,61.3,52.9,74,30.11,10.0,Calm,Calm,-,N/A,,Clear,0,2013-08-07 10:15:00
4:35 AM,60.8,54.1,79,30.12,10.0,Calm,Calm,-,N/A,,Clear,0,2013-08-07 10:35:00
4:55 AM,61.0,54.5,79,30.11,10.0,Calm,Calm,-,N/A,,Clear,0,2013-08-07 10:55:00
5:15 AM,60.4,54.7,81,30.11,10.0,NW,4.6,-,N/A,,Clear,320,2013-08-07 11:15:00
5:35 AM,60.6,54.7,81,30.11,10.0,WNW,4.6,-,N/A,,Clear,290,2013-08-07 11:35:00
5:55 AM,60.1,54.7,82,30.12,10.0,NNW,3.5,-,N/A,,Clear,330,2013-08-07 11:55:00
6:15 AM,60.1,54.9,83,30.13,10.0,NE,3.5,-,N/A,,Clear,50,2013-08-07 12:15:00
6:35 AM,60.8,54.5,80,30.14,10.0,Calm,Calm,-,N/A,,Scattered Clouds,0,2013-08-07 12:35:00
6:55 AM,60.4,55.2,83,30.13,10.0,Calm,Calm,-,N/A,,Mostly Cloudy,0,2013-08-07 12:55:00
7:15 AM,60.3,55.8,85,30.13,10.0,NNW,4.6,-,N/A,,Mostly Cloudy,340,2013-08-07 13:15:00
7:35 AM,61.0,55.6,82,30.15,10.0,Calm,Calm,-,N/A,Rain,Light Rain,0,2013-08-07 13:35:00
7:55 AM,61.7,55.4,80,30.15,10.0,Calm,Calm,-,N/A,,Overcast,0,2013-08-07 13:55:00
8:15 AM,62.6,55.6,78,30.17,10.0,Calm,Calm,-,N/A,,Mostly Cloudy,0,2013-08-07 14:15:00
8:35 AM,63.1,56.3,78,30.16,10.0,NNW,3.5,-,N/A,,Mostly Cloudy,330,2013-08-07 14:35:00
8:55 AM,63.5,56.5,78,30.17,10.0,West,4.6,-,N/A,,Scattered Clouds,280,2013-08-07 14:55:00
9:15 AM,63.5,56.7,78,30.17,10.0,West,4.6,-,N/A,,Scattered Clouds,280,2013-08-07 15:15:00
9:35 AM,63.9,56.7,77,30.16,10.0,NW,3.5,-,N/A,,Clear,310,2013-08-07 15:35:00
9:55 AM,64.6,56.5,75,30.17,10.0,Calm,Calm,-,N/A,,Clear,0,2013-08-07 15:55:00
10:15 AM,65.5,56.3,72,30.17,10.0,Calm,Calm,-,N/A,,Clear,0,2013-08-07 16:15:00
10:35 AM,66.2,56.3,70,30.17,10.0,Calm,Calm,-,N/A,,Clear,0,2013-08-07 16:35:00
10:55 AM,66.4,56.5,70,30.17,10.0,Calm,Calm,-,N/A,,Clear,0,2013-08-07 16:55:00
11:15 AM,67.1,57.2,70,30.16,10.0,North,3.5,-,N/A,,Scattered Clouds,350,2013-08-07 17:15:00
11:35 AM,67.6,56.7,68,30.15,10.0,NW,3.5,-,N/A,,Mostly Cloudy,320,2013-08-07 17:35:00
11:55 AM,69.4,54.5,59,30.14,10.0,WSW,4.6,-,N/A,,Overcast,250,2013-08-07 17:55:00
12:15 PM,70.0,53.8,56,30.14,10.0,SSW,4.6,-,N/A,,Scattered Clouds,200,2013-08-07 18:15:00
12:35 PM,70.5,52.9,54,30.14,10.0,South,4.6,-,N/A,,Scattered Clouds,170,2013-08-07 18:35:00
12:55 PM,71.2,52.7,52,30.14,10.0,SSE,5.8,-,N/A,,Mostly Cloudy,150,2013-08-07 18:55:00
1:15 PM,72.5,52.0,48,30.14,10.0,SSE,6.9,-,N/A,,Overcast,150,2013-08-07 19:15:00
1:35 PM,72.9,48.0,41,30.13,10.0,SSW,6.9,-,N/A,,Overcast,200,2013-08-07 19:35:00
1:55 PM,72.9,46.9,40,30.13,10.0,SSW,3.5,-,N/A,,Scattered Clouds,210,2013-08-07 19:55:00
2:15 PM,72.9,48.9,43,30.13,10.0,SW,4.6,-,N/A,,Clear,220,2013-08-07 20:15:00
2:35 PM,73.4,47.7,40,30.13,10.0,South,5.8,-,N/A,,Scattered Clouds,170,2013-08-07 20:35:00
2:55 PM,73.8,47.7,40,30.13,10.0,South,9.2,-,N/A,,Mostly Cloudy,180,2013-08-07 20:55:00
3:15 PM,73.6,47.3,39,30.13,10.0,South,10.4,-,N/A,,Scattered Clouds,180,2013-08-07 21:15:00
3:35 PM,73.9,49.5,42,30.11,10.0,SSE,10.4,-,N/A,,Clear,150,2013-08-07 21:35:00
3:55 PM,73.4,50.2,44,30.10,10.0,SE,12.7,-,N/A,,Scattered Clouds,130,2013-08-07 21:55:00
4:15 PM,74.7,50.5,43,30.10,10.0,SSE,9.2,-,N/A,,Mostly Cloudy,150,2013-08-07 22:15:00
4:35 PM,75.7,50.5,41,30.10,10.0,SE,11.5,16.1,N/A,,Mostly Cloudy,130,2013-08-07 22:35:00
4:55 PM,75.6,49.8,40,30.09,10.0,SE,17.3,21.9,N/A,,Scattered Clouds,130,2013-08-07 22:55:00
5:15 PM,74.5,49.3,41,30.10,10.0,SE,9.2,-,N/A,,Clear,140,2013-08-07 23:15:00
5:35 PM,75.6,49.1,39,30.10,10.0,SSE,4.6,-,N/A,,Clear,160,2013-08-07 23:35:00
5:55 PM,77.2,48.9,37,30.09,10.0,South,4.6,-,N/A,,Clear,170,2013-08-07 23:55:00
6:15 PM,74.3,50.7,43,30.08,10.0,SE,8.1,-,N/A,,Clear,140,2013-08-08 00:15:00
6:35 PM,73.2,53.6,50,30.07,10.0,SSE,11.5,-,N/A,,Clear,150,2013-08-08 00:35:00
6:55 PM,71.8,53.8,53,30.07,10.0,SE,13.8,19.6,N/A,,Clear,140,2013-08-08 00:55:00
7:15 PM,71.6,52.9,52,30.06,10.0,SSE,10.4,-,N/A,,Clear,160,2013-08-08 01:15:00
7:35 PM,71.2,52.0,51,30.06,10.0,SSE,4.6,-,N/A,,Clear,160,2013-08-08 01:35:00
7:55 PM,70.0,52.7,54,30.05,10.0,SSE,3.5,-,N/A,,Clear,150,2013-08-08 01:55:00
8:15 PM,66.9,53.4,62,30.06,10.0,Calm,Calm,-,N/A,,Clear,0,2013-08-08 02:15:00
8:35 PM,65.1,53.2,65,30.06,10.0,Calm,Calm,-,N/A,,Clear,0,2013-08-08 02:35:00
8:55 PM,66.6,58.1,74,30.07,10.0,ESE,9.2,-,N/A,,Clear,110,2013-08-08 02:55:00
9:15 PM,65.3,58.8,80,30.07,10.0,East,9.2,-,N/A,,Clear,100,2013-08-08 03:15:00
9:35 PM,65.3,59.0,80,30.07,10.0,ESE,10.4,-,N/A,,Clear,110,2013-08-08 03:35:00
9:55 PM,63.7,59.0,85,30.07,10.0,ESE,8.1,-,N/A,,Clear,120,2013-08-08 03:55:00
10:15 PM,61.9,58.3,88,30.07,10.0,West,4.6,-,N/A,,Clear,260,2013-08-08 04:15:00
10:35 PM,62.1,58.5,88,30.07,10.0,Calm,Calm,-,N/A,,Clear,0,2013-08-08 04:35:00
10:55 PM,61.3,58.3,90,30.07,10.0,ENE,3.5,-,N/A,,Clear,60,2013-08-08 04:55:00
11:15 PM,60.3,58.1,93,30.07,10.0,NNW,3.5,-,N/A,,Clear,330,2013-08-08 05:15:00
11:35 PM,59.2,57.6,94,30.07,10.0,Calm,Calm,-,N/A,,Clear,0,2013-08-08 05:35:00
11:55 PM,59.0,58.1,97,30.07,10.0,NNW,3.5,-,N/A,,Clear,340,2013-08-08 05:55:00